Location: Aracaju
(10.9167°S, 37.0667°W)
Time: 23:07:36
(UTC-02:00)

ISS - Visible Passes

Search period start: 20 October 2017 00:00
Search period end: 30 October 2017 00:00
Orbit: 401 x 408 km, 51.6° (Epoch: 21 October)

Date Brightness Start Highest point End Pass type
(mag) Time Alt. Az. Time Alt. Az. Time Alt. Az.
20 Oct -3.2 19:44:03 10° NNW 19:46:29 46° NNW 19:46:29 46° NNW visible
21 Oct -2.7 18:52:17 10° N 18:55:05 26° NE 18:57:54 10° ESE visible
21 Oct -0.3 20:30:39 10° WSW 20:31:28 11° SW 20:31:48 11° SW visible
22 Oct -1.4 19:36:17 10° WNW 19:39:03 25° SW 19:41:52 10° S visible
23 Oct -3.0 05:28:46 10° SSW 05:31:59 56° SE 05:35:11 10° NE visible
23 Oct -3.5 18:43:28 10° NW 18:46:44 72° SW 18:50:01 10° SSE visible
24 Oct -1.1 04:37:05 10° S 04:39:38 21° SE 04:42:11 10° ENE visible
25 Oct -3.1 05:20:40 10° WSW 05:23:37 31° NW 05:26:32 10° N visible
26 Oct -3.0 04:32:14 44° NE 04:32:14 44° NE 04:34:34 10° NE visible
